Laurinburg-Maxton, NC

10:07 PM EDT on April 27, 2017 (GMT -0400)
Laurinburg-Maxton

Weather History for KMEB - March, 2014

Change the Weather History Date:

Monday, March 3, 2014

  Actual Average (KHFF) Record (KHFF)
Temperature  
Mean Temperature 43 °F -  
Max Temperature 60 °F 54 °F 77 °F (2004)
Min Temperature 26 °F 36 °F 17 °F (2009)
Degree Days  
Heating Degree Days 22    
Moisture  
Dew Point 36 °F    
Average Humidity 88    
Maximum Humidity 100    
Minimum Humidity 64    
Precipitation  
Precipitation 0.25 in - - ()
Sea Level Pressure  
Sea Level Pressure 30.03 in    
Wind  
Wind Speed 14 mph (NE)    
Max Wind Speed 25 mph    
Max Gust Speed 38 mph    
Visibility 7 miles    
Events Rain , Snow    
Averages and records for this station are not official NWS values.
T = Trace of Precipitation, MM = Missing Value Source: NWS Daily Summary

Daily Weather History Graph

Daily Weather History Graph

Search for Another Location

Airport or City:

Trip Planner

Search our weather history database for the weather conditions in past years. The results will help you decide how hot, cold, wet, or windy it might be!

Date:

Astronomy

Mar. 03, 2014 Rise Set
Actual Time 6:44 AM EST 6:15 PM EST
Civil Twilight 6:18 AM EST 6:40 PM EST
Nautical Twilight 5:49 AM EST 7:09 PM EST
Astronomical Twilight 5:20 AM EST 7:38 PM EST
Moon 7:58 AM EST (3/3) 9:07 PM EST (3/3)
Length of Visible Light 12h 21m
Length of Day
11h 30m
Waxing Crescent, 8% of the Moon is Illuminated
Mar 3
Waxing Crescent
Mar 8
First Quarter
Mar 16
Full
Mar 23
Last Quarter
Mar 30
New

Hourly Weather History & Observations

Time (EST) Temp. Windchill Dew Point Humidity Pressure Visibility Wind Dir Wind Speed Gust Speed Precip Events Conditions
12:52 AM 55.9 °F - 46.0 °F 69% 29.94 in 10.0 mi SW 10.4 mph - N/A   Clear
1:52 AM 55.0 °F - 45.0 °F 69% 29.92 in 10.0 mi SW 10.4 mph - N/A   Clear
2:52 AM 54.0 °F - 44.1 °F 69% 29.88 in 10.0 mi SSW 8.1 mph - N/A   Clear
3:52 AM 54.0 °F - 43.0 °F 66% 29.88 in 10.0 mi SW 10.4 mph - N/A   Clear
4:52 AM 53.1 °F - 42.1 °F 66% 29.87 in 10.0 mi SW 11.5 mph - N/A   Clear
5:52 AM 53.1 °F - 41.0 °F 64% 29.87 in 10.0 mi SW 10.4 mph - N/A   Clear
6:52 AM 52.0 °F - 42.1 °F 69% 29.86 in 10.0 mi South 9.2 mph - N/A   Clear
7:52 AM 53.1 °F - 43.0 °F 69% 29.88 in 10.0 mi WSW 5.8 mph - N/A   Clear
8:52 AM 55.9 °F - 46.9 °F 72% 29.88 in 10.0 mi SSW 5.8 mph - N/A   Clear
9:52 AM 60.1 °F - 50.0 °F 69% 29.88 in 10.0 mi WSW 11.5 mph - N/A   Overcast
10:52 AM 57.9 °F - 50.0 °F 75% 29.88 in 5.0 mi West 12.7 mph - 0.01 in Rain Rain
11:52 AM 55.9 °F - 54.0 °F 93% 29.87 in 6.0 mi North 4.6 mph - 0.05 in Rain Light Rain
12:09 PM 55.0 °F - 54.0 °F 96% 29.89 in 6.0 mi North 6.9 mph - 0.01 in Rain Light Rain
12:34 PM 55.0 °F - 54.0 °F 96% 29.87 in 4.0 mi NE 9.2 mph - 0.03 in Rain Light Rain
12:47 PM 53.6 °F - 53.6 °F 100% 29.88 in 4.0 mi NE 12.7 mph - 0.04 in Rain Light Rain
12:52 PM 53.1 °F - 51.1 °F 93% 29.88 in 5.0 mi NE 13.8 mph - 0.04 in Rain Light Rain
1:37 PM 46.9 °F - 45.0 °F 93% 29.90 in 2.5 mi NE 17.3 mph - 0.03 in Rain Light Rain
1:52 PM 45.0 °F 36.9 °F 43.0 °F 93% 29.91 in 3.0 mi NE 20.7 mph 27.6 mph 0.04 in Rain Light Rain
2:14 PM 43.0 °F 34.2 °F 41.0 °F 93% 29.93 in 2.5 mi NE 20.7 mph 28.8 mph 0.00 in Rain Light Rain
2:21 PM 42.1 °F 33.1 °F 41.0 °F 96% 29.93 in 3.0 mi NNE 20.7 mph 27.6 mph 0.01 in   Overcast
2:52 PM 39.0 °F 29.0 °F 37.9 °F 96% 29.96 in 5.0 mi NNE 20.7 mph 26.5 mph 0.01 in   Overcast
3:27 PM 37.0 °F 25.4 °F 35.1 °F 93% 29.98 in 4.0 mi NE 25.3 mph 35.7 mph 0.00 in   Overcast
3:52 PM 37.0 °F 25.9 °F 34.0 °F 89% 29.99 in 6.0 mi NE 23.0 mph 33.4 mph 0.00 in   Overcast
4:16 PM 36.0 °F 25.0 °F 35.1 °F 97% 30.01 in 2.5 mi NNE 20.7 mph 29.9 mph 0.00 in   Overcast
4:35 PM 34.0 °F 21.8 °F 32.0 °F 92% 30.03 in 4.0 mi NE 23.0 mph 33.4 mph 0.01 in   Overcast
4:52 PM 33.1 °F 20.3 °F 30.9 °F 92% 30.05 in 3.0 mi NNE 24.2 mph 38.0 mph 0.01 in   Overcast
5:23 PM 30.9 °F 18.4 °F 28.9 °F 92% 30.08 in 2.0 mi NE 20.7 mph 29.9 mph 0.05 in Rain Light Freezing Rain
5:26 PM 32.0 °F 20.1 °F 30.0 °F 92% 30.08 in 3.0 mi NE 19.6 mph 29.9 mph 0.05 in Snow Light Snow
5:41 PM 32.0 °F 19.8 °F 30.0 °F 92% 30.10 in 2.5 mi NE 20.7 mph 29.9 mph 0.07 in Snow Light Snow
5:52 PM 30.9 °F 20.2 °F 30.0 °F 96% 30.11 in 4.0 mi NE 15.0 mph - 0.07 in Snow Light Snow
6:02 PM 30.9 °F 18.1 °F 30.0 °F 96% 30.11 in 3.0 mi NE 21.9 mph 27.6 mph 0.02 in Snow Light Snow
6:14 PM 30.9 °F 18.7 °F 28.9 °F 92% 30.12 in 1.8 mi NNE 19.6 mph 27.6 mph 0.02 in Snow Light Snow
6:22 PM 30.9 °F 19.8 °F 30.0 °F 96% 30.12 in 3.0 mi NE 16.1 mph - 0.02 in Snow Light Snow
6:45 PM 30.9 °F 20.2 °F 28.9 °F 92% 30.13 in 10.0 mi NE 15.0 mph 24.2 mph 0.02 in   Overcast
6:52 PM 30.9 °F 18.4 °F 28.9 °F 92% 30.14 in 10.0 mi NE 20.7 mph 29.9 mph 0.02 in   Overcast
6:56 PM 30.9 °F 18.4 °F 28.9 °F 92% 30.14 in 10.0 mi NE 20.7 mph 29.9 mph N/A   Overcast
7:16 PM 30.9 °F 19.8 °F 28.9 °F 92% 30.14 in 10.0 mi NE 16.1 mph 27.6 mph N/A   Overcast
7:23 PM 30.9 °F 20.2 °F 28.9 °F 92% 30.14 in 10.0 mi NE 15.0 mph - N/A   Overcast
7:50 PM 30.2 °F 20.2 °F 30.2 °F 100% 30.14 in 10.0 mi NE 12.7 mph - N/A   Overcast
7:52 PM 30.9 °F 21.2 °F 30.0 °F 96% 30.14 in 10.0 mi NE 12.7 mph - N/A   Overcast
8:29 PM 30.0 °F 18.7 °F 28.0 °F 92% 30.17 in 10.0 mi NE 16.1 mph 26.5 mph N/A   Overcast
8:52 PM 30.0 °F 19.5 °F 28.0 °F 92% 30.19 in 7.0 mi NNE 13.8 mph 24.2 mph N/A   Overcast
8:59 PM 28.9 °F 17.7 °F 28.0 °F 96% 30.19 in 10.0 mi NNE 15.0 mph 24.2 mph N/A   Overcast
9:52 PM 28.0 °F 14.9 °F 26.1 °F 92% 30.23 in 10.0 mi NNE 19.6 mph 25.3 mph N/A   Overcast
10:52 PM 27.0 °F 13.2 °F 24.1 °F 89% 30.24 in 10.0 mi NNE 20.7 mph 28.8 mph N/A   Overcast
11:26 PM 26.1 °F 12.7 °F 23.0 °F 88% 30.24 in 10.0 mi NE 18.4 mph - N/A   Overcast
11:38 PM 26.1 °F 13.6 °F 23.0 °F 88% 30.24 in 10.0 mi NE 16.1 mph - N/A   Overcast
11:52 PM 26.1 °F 14.5 °F 23.0 °F 88% 30.24 in 10.0 mi NE 13.8 mph - N/A   Overcast